Regional Weather Roundup
Issued by NWS

Home | Current Version | Previous Version | Text Only | Print | Product List | Glossary On
Versions: 1 2 3 4 5 6 7 8 9 10 11 12 13 14 15 16 17 18 19 20 21 22 23 24 25 26 27 28 29 30 31 32 33 34 35 36 37 38 39 40 41 42 43 44 45 46 47 48 49 50
000
ASMX46 KSGX 311210
RWRMX

MEXICAN WEATHER ROUNDUP
NATIONAL WEATHER SERVICE SAN DIEGO CA
500 AM PDT FRI OCT 31 2014

BAJA CALIFORNIA

CITY           SKY/WX    TMP DP  RH WIND       PRES   REMARKS
ENSENADA NW      N/A     68  32  26 W7        29.92S
TIJUANA        CLOUDY    66  54  63 CALM      29.97F

NORTHWESTERN MEXICO

CITY           SKY/WX    TMP DP  RH WIND       PRES   REMARKS
CHIHUAHUA      PTCLDY    48  43  81 S3        30.27
CULIACAN       CLEAR     73  72  94 CALM      29.84
HERMOSILLO     CLOUDY    68  57  68 CALM      29.89S
JUAREZ         CLEAR     59  50  72 NE8       30.25
LOS MOCHIS     PTCLDY    72  66  83 CALM      29.85
OBREGON        MOCLDY    70  64  83 E3        29.83

NORTHEASTERN MEXICO

CITY           SKY/WX    TMP DP  RH WIND       PRES   REMARKS
MONTERREY      CLEAR     63  59  88 NW7       30.11R
NUEVO LAREDO   CLEAR     70  68  94 CALM      30.09
REYNOSA        CLEAR     64  63  94 W2        30.08
SALTILLO       CLEAR     50  37  62 CALM      30.29
TORREON        CLEAR     63  41  45 CALM      30.19
VICTORIA       CLEAR     63  63 100 NW5       30.11

WESTERN MEXICO

CITY           SKY/WX    TMP DP  RH WIND       PRES   REMARKS
AGUASCALIENTES CLEAR     46  41  81 N6        30.31
COLIMA         CLEAR     72  61  68 CALM      29.95
DURANGO        CLEAR     45  39  81 NW5       30.32R
GUADALAJARA    CLEAR     48  45  87 CALM      30.21
MAZATLAN       CLEAR     66  64  94 NE7       29.81R
PTO. VALLARTA  CLEAR     75  73  94 CALM      29.80S
ZACATECAS      CLEAR     46  37  71 NE3       30.33R

CENTRAL MEXICO

CITY           SKY/WX    TMP DP  RH WIND       PRES   REMARKS
LEON           CLEAR     50  43  76 N2        30.31S
MEXICO CITY    MOCLDY    52  45  76 W6        30.34S
MORELIA        CLEAR     41  41 100 CALM      30.25
PUEBLA         MOCLDY    50  46  87 N7        30.32F
QUERETARO      PTCLDY    43  43 100 E6        30.35R
S. LUIS POTOSI CLEAR     45  45 100 CALM      30.31S HAZE
TAMPICO        CLEAR     72  68  88 NW8       30.06
TOLUCA         CLEAR     37  34  87 N5        30.38S WCI  34
VERACRUZ       MOCLDY    75  68  78 N8        29.99

SOUTHERN MEXICO

CITY           SKY/WX    TMP DP  RH WIND       PRES   REMARKS
ACAPULCO       MOCLDY    77  72  83 N2        29.81S
MINATITLAN     MOCLDY    77  66  69 NW17      29.93
OAXACA         MOCLDY    61  54  77 N6        30.19
TAPACHULA      CLOUDY    73  72  94 CALM      29.85R
TUX. GUTIERREZ MOCLDY    70  68  94 CALM      29.94
VILLAHERMOSA   CLOUDY    73  72  94 CALM      29.96R

YUCATAN PENINSULA

CITY           SKY/WX    TMP DP  RH WIND       PRES   REMARKS
CAMPECHE         N/A     73  73 100 CALM      29.92S FOG
CANCUN         PTCLDY    70  70 100 N2        29.93R
CHETUMAL       MOCLDY    73  68  83 CALM      29.90
C. DEL CARMEN  MOCLDY    79  72  78 NE13      29.93
COZUMEL        PTCLDY    72  72 100 N8        29.92R
MERIDA         CLEAR     72  70  94 CALM      29.95R

$$




USA.gov is the U.S. government's official web portal to all federal, state and local government web resources and services.